| time (UTC) | temp F | wind direction | speed knots | gust knots | rain 1hr in | rain 24hr in | rain mn in | humidity % | barometer mb |
| 20260504201543 | 70 | 360 | 3.5 | 10.4 | 0.00 | 0.00 | 0.00 | 43 | 1008.4 |
| 20260504200040 | 68 | 360 | 1.7 | 7.0 | 0.00 | 0.00 | 0.00 | 44 | 1008.4 |
| 20260504194534 | 67 | 360 | 1.7 | 10.4 | 0.00 | 0.00 | 0.00 | 45 | 1008.8 |
| 20260504193034 | 68 | 360 | 3.5 | 13.0 | 0.00 | 0.00 | 0.00 | 44 | 1008.9 |
| 20260504191532 | 69 | 360 | 3.5 | 10.4 | 0.00 | 0.00 | 0.00 | 43 | 1009.0 |
| 20260504190033 | 70 | 360 | 2.6 | 10.4 | 0.00 | 0.00 | 0.00 | 42 | 1009.2 |
| 20260504184527 | 69 | 360 | 3.5 | 10.4 | 0.00 | 0.00 | 0.00 | 46 | 1009.3 |
| 20260504183026 | 69 | 360 | 1.7 | 13.9 | 0.00 | 0.00 | 0.00 | 46 | 1009.3 |
| 20260504181524 | 69 | 360 | 1.7 | 13.0 | 0.00 | 0.00 | 0.00 | 43 | 1009.7 |
| 20260504180024 | 69 | 40 | 2.6 | 11.3 | 0.00 | 0.00 | 0.00 | 42 | 1009.6 |
| 20260504174518 | 68 | 360 | 3.5 | 9.6 | 0.00 | 0.00 | 0.00 | 44 | 1009.8 |
| 20260504173015 | 67 | 360 | 4.3 | 13.0 | 0.00 | 0.00 | 0.00 | 43 | 1009.9 |
| 20260504171514 | 67 | 360 | 3.5 | 12.2 | 0.00 | 0.00 | 0.00 | 45 | 1010.0 |
| 20260504081519 | 40 | 360 | 0.0 | 0.0 | 0.00 | 0.00 | 0.00 | 77 | 1013.5 |
| 20260504050004 | 41 | 360 | 0.0 | 0.0 | 0.00 | 0.00 | 0.00 | 78 | 1013.3 |
| 20260504044512 | 40 | 360 | 0.0 | 0.9 | 0.00 | 0.00 | 0.00 | 80 | 1013.2 |
| 20260504043005 | 40 | 360 | 0.0 | 0.9 | 0.00 | 0.00 | 0.00 | 81 | 1013.2 |
| 20260504041600 | 40 | 360 | 0.0 | 0.9 | 0.00 | 0.00 | 0.00 | 81 | 1013.0 |
| 20260504040116 | 40 | 360 | 0.0 | 0.9 | 0.00 | 0.00 | 0.00 | 81 | 1013.1 |
| 20260504034634 | 40 | 360 | 0.0 | 2.6 | 0.00 | 0.00 | 0.00 | 80 | 1012.9 |
| 20260504033056 | 41 | 360 | 0.0 | 0.0 | 0.00 | 0.00 | 0.00 | 80 | 1012.9 |
| 20260504031553 | 41 | 360 | 0.0 | 0.0 | 0.00 | 0.00 | 0.00 | 78 | 1012.8 |
| 20260504030118 | 42 | 360 | 0.0 | 0.0 | 0.00 | 0.00 | 0.00 | 76 | 1012.9 |
| 20260504024555 | 42 | 360 | 0.0 | 0.0 | 0.00 | 0.00 | 0.00 | 73 | 1012.9 |
| 20260504023044 | 43 | 360 | 0.0 | 0.0 | 0.00 | 0.00 | 0.00 | 71 | 1012.9 |
| 20260504021546 | 43 | 360 | 0.0 | 0.0 | 0.00 | 0.00 | 0.00 | 70 | 1012.9 |
| 20260504020039 | 44 | 360 | 0.0 | 0.0 | 0.00 | 0.00 | 0.00 | 69 | 1012.9 |
| 20260504014536 | 45 | 360 | 0.0 | 0.0 | 0.00 | 0.00 | 0.00 | 66 | 1012.9 |
| 20260504013040 | 46 | 360 | 0.0 | 0.0 | 0.00 | 0.00 | 0.00 | 64 | 1012.6 |
| 20260504011528 | 47 | 360 | 0.0 | 0.0 | 0.00 | 0.00 | 0.00 | 62 | 1012.3 |
| 20260504010024 | 48 | 360 | 0.0 | 0.0 | 0.00 | 0.00 | 0.00 | 62 | 1012.3 |
| 20260504004521 | 49 | 360 | 0.0 | 0.9 | 0.00 | 0.00 | 0.00 | 57 | 1012.0 |
| 20260504003014 | 50 | 360 | 0.0 | 0.0 | 0.00 | 0.00 | 0.00 | 54 | 1011.8 |
| 20260504001511 | 51 | 360 | 0.0 | 0.9 | 0.00 | 0.00 | 0.00 | 56 | 1011.8 |
| 20260504000007 | 52 | 360 | 0.0 | 0.0 | 0.00 | 0.00 | 0.00 | 52 | 1011.6 |
| 20260503234505 | 53 | 360 | 0.0 | 0.0 | 0.00 | 0.00 | 0.00 | 54 | 1011.5 |
| 20260503233106 | 54 | 360 | 0.0 | 1.7 | 0.00 | 0.00 | 0.00 | 53 | 1011.6 |
| 20260503231559 | 54 | 360 | 0.0 | 2.6 | 0.00 | 0.00 | 0.00 | 49 | 1011.6 |
| 20260503224557 | 55 | 360 | 0.0 | 3.5 | 0.00 | 0.00 | 0.00 | 51 | 1011.5 |
| 20260503223057 | 55 | 360 | 0.0 | 4.3 | 0.00 | 0.00 | 0.00 | 51 | 1011.5 |
| 20260503221555 | 55 | 360 | 0.0 | 3.5 | 0.00 | 0.00 | 0.00 | 47 | 1011.5 |
| 20260503220052 | 55 | 360 | 0.0 | 3.5 | 0.00 | 0.00 | 0.00 | 47 | 1011.5 |
| 20260503214600 | 56 | 360 | 0.0 | 8.7 | 0.00 | 0.00 | 0.00 | 45 | 1011.5 |
| 20260503213049 | 56 | 360 | 0.0 | 2.6 | 0.00 | 0.00 | 0.00 | 49 | 1011.4 |
| 20260503211549 | 57 | 360 | 0.9 | 7.8 | 0.00 | 0.00 | 0.00 | 45 | 1011.3 |
| 20260503210044 | 57 | 360 | 0.9 | 7.8 | 0.00 | 0.00 | 0.00 | 44 | 1011.2 |
| 20260503204552 | 57 | 360 | 0.9 | 5.2 | 0.00 | 0.00 | 0.00 | 45 | 1011.3 |
| 20260503203047 | 57 | 360 | 1.7 | 8.7 | 0.00 | 0.00 | 0.00 | 42 | 1011.4 |